NSZ5640 LEPA-ENEV

Flight info

Callsign NSZ5640
Flight time N/A
Altitude 32000
Route MEROS DCT LAPIT DCT CHELY DCT LUMAS DCT MAXIR DCT LUSOL DCT BODRU DCT OKTET DCT IRMAR/N0457F340 DCT KINES DCT VANAS DCT ESOKO DCT GODRA/N0456F350 DCT LOKTA DCT TEDGO DCT HAREM DCT LOHRE DCT ELNAT DCT GITER DCT TEKVA/N0452F370 DCT PENNO
Aircraft B38M/M-SDE1FGHILORVWXY/HB1

Departure

Time 2026-05-01 10:45
Airport Palma de Mallorca Airport (LEPA)

Arrival

Time N/A
Airport Harstad/Narvik Airport (ENEV)
Time Latitude Longitude Altitude Speed Heading
2026-05-01 10:21 39.54800 2.73608 32 ft 0 kts 58°
2026-05-01 10:23 39.54801 2.73609 32 ft 0 kts 58°
2026-05-01 10:24 39.54799 2.73605 32 ft 0 kts 58°
2026-05-01 10:24 39.54800 2.73608 32 ft 0 kts 58°
2026-05-01 10:25 39.54798 2.73609 32 ft 0 kts 58°
2026-05-01 10:25 39.54696 2.73402 32 ft 0 kts 238°
2026-05-01 10:37 39.54700 2.73412 32 ft 4 kts 238°
2026-05-01 10:38 39.54712 2.73438 32 ft 2 kts 239°
2026-05-01 10:38 39.54727 2.73461 32 ft 4 kts 206°
2026-05-01 10:38 39.54746 2.73459 32 ft 3 kts 148°
2026-05-01 10:38 39.54763 2.73446 32 ft 0 kts 148°
2026-05-01 10:42 39.54761 2.73448 32 ft 2 kts 148°
2026-05-01 10:42 39.54725 2.73476 32 ft 11 kts 148°
2026-05-01 10:42 39.54643 2.73543 32 ft 15 kts 140°
2026-05-01 10:42 39.54580 2.73638 32 ft 13 kts 179°
2026-05-01 10:43 39.54520 2.73555 32 ft 15 kts 239°
2026-05-01 10:43 39.54448 2.73400 32 ft 25 kts 239°
2026-05-01 10:43 39.54354 2.73204 32 ft 21 kts 238°
2026-05-01 10:43 39.54307 2.73168 32 ft 6 kts 138°
2026-05-01 10:44 39.54282 2.73248 32 ft 15 kts 97°
2026-05-01 10:44 39.54270 2.73423 32 ft 22 kts 94°
2026-05-01 10:44 39.54339 2.73625 32 ft 41 kts 58°
2026-05-01 10:44 39.54622 2.74218 32 ft 112 kts 59°
2026-05-01 10:45 39.55141 2.75316 45 ft 169 kts 58°
2026-05-01 10:45 39.55759 2.76673 721 ft 178 kts 59°
2026-05-01 10:45 39.56410 2.78096 1561 ft 183 kts 60°
2026-05-01 10:45 39.57086 2.79556 2200 ft 200 kts 59°
2026-05-01 10:46 39.57833 2.81169 2733 ft 217 kts 60°
2026-05-01 10:46 39.58616 2.82860 3531 ft 216 kts 60°